Retour au catalogue

COSMOS 970 DEB

ActifLEO
NORAD 10889·DEBRIS·🇷🇺 Russia

Lancé Dec 21, 1977 depuis Baikonur Cosmodrome

Loading…

Prochains Passages (prochaines 24 heures)

TLE

FraisSource: Space-Track

Époque: Sep 14, 2026, 07:27 UTC

1 10889U 77121AL  26257.31073399  .00000237  00000-0  30636-3 0  9994
2 10889  65.8241 235.6601 0120019  87.4987 273.9810 13.76750695437208

Suivez COSMOS 970 DEB en temps réel avec AllMySat

Download on the App Store